www.pogodaiklimat.ru

Погода и климат >> Архив погоды >> Южная Африка >> Тигерхук


ПОГОДА в Тигерхуке

  • Прогноз погоды в Тигерхуке
  • Монитор погоды в Тигерхуке

АРХИВ ПОГОДЫ в Тигерхуке

Время (UTC), дата Ветер
(напр.,м/с)
 
Видим.   Явления Облачность Т
(С)
Тd
(С)
f
(%)
Тe
(С)
Тes
(С)
Комфортность P
(гПа)
Po
(гПа)
Тmin
(С)
Tmax
(С)
R
(мм)
R24
(мм)
S
(см)
00 16.09 В 1 н/о н/о +9.9 +8.3 90 +9 +9 999.8 +9.5 +27.6
03 16.09 СЗ 1 н/о н/о +8.0 +7.2 95 +7 +7 999.6 +7.6 +27.6
06 16.09 З 1 н/о н/о +9.8 +8.7 93 +9 +9 1001.1 +7.1
09 16.09 ЮЗ 2 н/о н/о +22.8 +11.0 47 +25 +25 комфорт 1001.0 +7.1 +22.8
12 16.09 СЗ 2 н/о н/о +26.8 +10.7 36 +28 +28 жарко 998.9 +7.1 +26.8
15 16.09 ЮЗ 3 н/о н/о +26.5 +11.6 39 +28 +28 жарко 999.2 +26.5 +29.1
18 16.09 В 2 н/о н/о +18.7 +13.6 72 +20 +20 1001.0 +18.7 +29.1
21 16.09 В 1 н/о н/о +14.9 +13.2 90 +15 +15 1002.7 +14.7 +29.1
00 17.09 З 1 н/о н/о +11.4 +10.7 95 +11 +11 1001.5 +11.4 +29.1
03 17.09 штиль 0 н/о н/о +13.4 +12.6 95 +13 +13 1001.0 +10.4 +29.1
06 17.09 штиль 0 н/о н/о +13.4 +12.7 96 +13 +13 1001.6 +10.0
09 17.09 В 3 н/о н/о +22.3 +12.9 55 +25 +25 комфорт 1000.8 +10.0 +22.3
12 17.09 ЮВ 1 н/о н/о +28.7 +11.5 34 +29 +29 жарко 999.0 +10.0 +28.9
15 17.09 ЮВ 3 н/о н/о +26.6 +12.5 42 +28 +28 жарко 998.8 +26.6 +29.5
18 17.09 ЮВ 2 н/о н/о +16.8 +12.6 76 +17 +17 1001.5 +16.8 +29.5
21 17.09 В 2 н/о н/о +14.5 +12.8 90 +14 +14 1002.7 +14.5 +29.5
00 18.09 В 2 н/о н/о +16.4 +14.2 87 +16 +16 1002.0 +14.2 +29.5
03 18.09 З 2 н/о н/о +14.6 +12.9 90 +14 +14 1001.5 +14.2 +29.5
06 18.09 З 2 н/о н/о +15.0 +13.3 90 +15 +15 1002.3 +14.2
09 18.09 СВ 1 н/о н/о +19.8 +14.0 69 +23 +23 комфорт 1002.2 +14.2 +19.9
12 18.09 В 2 н/о н/о +24.5 +13.5 50 +27 +27 жарко 1000.8 +14.2 +24.8
15 18.09 В 3 н/о н/о +22.3 +16.4 69 +27 +27 душно 1000.6 +22.3 +25.9
18 18.09 В 2 н/о н/о +18.1 +16.4 90 +19 +19 1001.7 +18.1 +25.9
21 18.09 В 3 н/о н/о +18.2 +16.3 89 +19 +19 1001.5 +17.7 +25.9
00 19.09 В 4 н/о н/о +18.7 +15.9 84 +20 +20 1000.1 +17.7 +25.9
03 19.09 В 3 н/о н/о +18.6 +16.2 86 +20 +20 998.1 +17.7 +25.9
06 19.09 В 4 н/о н/о +18.7 +15.9 84 +20 +20 997.0 +17.7
09 19.09 В 4 н/о н/о +25.3 +14.9 53 +28 +28 жарко 993.5 +17.7 +25.3
12 19.09 ЮВ 4 н/о н/о +31.3 +15.6 39 +34 +34 душно 990.8 +17.7 +31.6
15 19.09 Ю 4 н/о н/о +27.7 +17.4 53 +32 +32 очень
душно
991.7 +27.7 +32.9
18 19.09 ЮЗ 2 н/о н/о +20.0 +16.6 81 +23 +23 комфорт 992.2 +20.0 +32.9
21 19.09 ЮЗ 2 н/о н/о +17.1 +14.7 86 +18 +18 992.5 +17.1 +32.9
09 20.09 З 6 н/о н/о +24.7 +12.1 45 +26 +26 жарко 996.1 +15.2 +24.8
12 20.09 З 5 н/о н/о +27.1 +11.0 37 +28 +28 жарко 994.4 +15.2 +27.1
15 20.09 ЮЗ 8 н/о н/о +23.1 +11.6 48 +25 +25 комфорт 995.2 +23.1 +27.1
18 20.09 З 6 н/о н/о +17.4 +10.6 64 +17 +17 997.4 +16.9 +27.1
21 20.09 СЗ 1 н/о н/о +13.3 +9.7 79 +13 +13 997.8 +13.2 +27.1
00 21.09 З 2 н/о н/о +9.9 +8.5 91 +8 +8 996.8 +9.9 +27.1
03 21.09 З 2 н/о н/о +7.9 +6.8 93 +6 +6 996.4 +7.9 +27.1
06 21.09 З 1 н/о н/о +10.3 +9.0 92 +10 +10 996.6 +6.6
12 21.09 З 6 н/о н/о +18.9 +12.2 65 +19 +19 996.8 +6.6 +23.3
15 21.09 З 5 н/о н/о +15.6 +9.3 66 +14 +14 997.5 +14.6 +23.3
18 21.09 З 3 н/о н/о +13.9 +13.1 95 +13 +13 1000.3 +13.9 +23.3 2
21 21.09 З 4 н/о н/о +13.1 +11.0 87 +11 +11 1001.9 +13.1 +23.3
00 22.09 З 2 н/о н/о +11.4 +9.9 90 +10 +10 1002.5 +10.8 +23.3 3
03 22.09 З 3 н/о н/о +12.8 +11.3 91 +11 +11 1003.4 +10.8 +23.3
06 22.09 СЗ 3 н/о н/о +13.7 +9.7 77 +13 +13 1005.0 +10.8 3
09 22.09 ЮЗ 4 н/о н/о +15.7 +8.5 62 +15 +15 1006.7 +10.8 +15.7
12 22.09 Ю 5 н/о н/о +17.1 +6.7 50 +17 +17 1007.7 +10.8 +18.7 2
15 22.09 Ю 5 н/о н/о +15.9 +6.9 55 +15 +15 1008.7 +15.9 +18.7
18 22.09 СЗ 2 н/о н/о +10.8 +5.5 70 +10 +10 1011.1 +10.8 +18.7 2
21 22.09 З 1 н/о н/о +7.0 +5.9 93 +6 +6 1012.6 +6.8 +18.7

 

Местоположение метеостанции Тигерхук (Южная Африка): широта -34.15 долгота 19.90 высота над уровнем моря 151 м.

В архиве по умолчанию представлена погода в Тигерхуке за последнюю неделю. Архивные данные за месяц целиком и за предыдущие месяцы, начиная с января 2011 года, Вы можете получить, выбрав интересующий диапазон дат из раскрывающегося списка и нажав кнопку "Ввод!".


*Определитесь, кто Вы:
робот инопланетянин человек

Внимание! Время в таблицах - всемирное. Для получения местного времени необходимо прибавить поправку, которая равна 2 ч.

Смотрите также архив погоды в соседних городах и на ближайших метеорологических станциях:

Погода в Робертсоне (Южная Африка) (39 км)
Погода в Херманусе (Южная Африка) (70 км)
Погода в Вустере (Южная Африка) (72 км)
Погода в Струисбааи (Южная Африка) (74 км)
Погода на Мысе Игольном (Южная Африка) (76 км)
Погода в Странде (Южная Африка) (97 км)
Погода в Парле (Южная Африка) (98 км)
Погода в Кейптауне (Южная Африка) (122 км)
Погода в Кейптауне аэропорту АМС (Южная Африка) (122 км)
Погода в Риверсдейле (Южная Африка) (125 км)

Пояснения к столбцам:

Ветер - указаны скорость ветра в м/с - средняя за 10 мин, порывы в срок и между сроками (в фигурных скобках) и направление, откуда дует ветер: С - северный, СВ - северо-восточный, В - восточный, ЮВ - юго-восточный, Ю - южный, ЮЗ - юго-западный, З - западный, СЗ - северо-западный.
Видимость - горизонтальная дальность видимости в метрах или километрах. При видимости от 1 до 10 км при отсутствии осадков обычно наблюдается дымка, при ухудшении видимости до 1 км и менее - туман. В сухую погоду видимость может ухудшаться дымом, пылью или мглою.
Явления - указаны атмосферные явления, наблюдавшиеся в срок или в последний час перед сроком; фигурными скобками обозначены явления, наблюдавшиеся между сроками (за 1-3 часа до срока); квадратными скобками обозначены град или гололедные отложения с указанием их диаметра в мм.
Облачность - указаны через наклонную черту общая и нижняя облачность в баллах и высота нижней границы облаков в метрах; квадратными скобками обозначены формы облаков: Ci - перистые, Cs - перисто-слоистые, Cc - перисто-кучевые, Ac - высококучевые, As - высокослоистые, Sc - слоисто-кучевые, Ns - слоисто-дождевые, Cu - кучевые, Cb - кучево-дождевые. Подробнее классификацию облаков см. в Атласе облаков (PDF).
T - Температура воздуха - температура, измеренная на высоте 2 м над землей.
Td - Температура точки росы - температура, при понижении до которой содержащийся в воздухе водяной пар достигнет насыщения.
f - Относительная влажность воздуха - влажноcть воздуха, измеренная на высоте 2 м над землей.
Te - Эффективная температура - температура, которую ощущает одетый по сезону человек в тени. Характеристика душности погоды. При расчете учитывается влияние влажности воздуха и скорости ветра на теплоощущения человека.
Tes - Эффективная температура на солнце - температура, которую ощущает человек, с поправкой на солнечный нагрев. Характеристика знойности погоды. Зависит от высоты солнца над горизонтом, облачности и скорости ветра. Ночью, в пасмурную погоду, а также при ветре 12 м/с и более поправка равна нулю.
P - Атмосферное давление - приведенное к уровню моря атмосферное давление.
Po - Атмосферное давление - измеренное на уровне метеостанции атмосферное давление.
Tmin - Минимальная температура - минимум температуры воздуха на высоте 2 м над землей.
Tmax - Максимальная температура - максимум температуры воздуха на высоте 2 м над землей.
R - Количество осадков - Количество выпавших осадков за период времени, мм. При наведении курсора мыши на число - период времени, за который выпало указанное количество осадков.
R24 - Количество осадков - Количество выпавших осадков за 24 часа, мм.
S - Снежный покров - Высота снежного покрова, см. При наведении курсора мыши на число - состояние снежного покрова и степень покрытия местности в баллах.